Voltar ao catálogo

ONEWEB-0570

AtivoComunicaçõesPO
NORAD 55149·PAYLOAD·🇬🇧 United Kingdom

Lançado Jan 10, 2023 de Cape Canaveral Space Force Station

Loading…

Próximas Passagens (próximas 24 horas)

TLE

AtualizadoSource: CelesTrak SupGP

Época: Sep 14, 2026, 09:11 UTC

1 55149C 23004K   26257.38279352 -.00003199  00000+0 -81239-2 0  2579
2 55149  87.9162 317.7427 0001912 113.6256 358.2548 13.18689276    14

Acompanhe ONEWEB-0570 em tempo real com AllMySat

Download on the App Store